Time,TemperatureF,DewpointF,PressureIn,WindDirection,WindDirectionDegrees,WindSpeedMPH,WindSpeedGustMPH,Humidity,HourlyPrecipIn,Conditions,Clouds,dailyrainin,SoftwareType,DateUTC
2013-06-02 00:00:00,61.6,56.1,29.92,NE,46,0.0,0.0,82,0.00,,---,0.00,VWS V14.01,2013-06-02 05:00:00,
2013-06-02 00:03:00,61.6,56.1,29.92,NE,46,0.0,0.0,82,0.00,,---,0.00,VWS V14.01,2013-06-02 05:03:00,
2013-06-02 00:07:00,61.5,55.6,29.92,NE,46,0.0,0.0,81,0.00,,---,0.00,VWS V14.01,2013-06-02 05:07:00,
2013-06-02 00:10:00,61.5,55.6,29.92,NE,46,0.0,0.0,81,0.00,,---,0.00,VWS V14.01,2013-06-02 05:10:00,
2013-06-02 00:13:00,61.4,55.5,29.92,NE,46,0.0,0.0,81,0.00,,---,0.00,VWS V14.01,2013-06-02 05:13:00,
2013-06-02 00:16:00,61.4,55.9,29.92,NE,46,0.0,0.0,82,0.00,,---,0.00,VWS V14.01,2013-06-02 05:16:00,
2013-06-02 00:19:00,61.3,55.8,29.92,NE,46,0.0,2.0,82,0.00,,---,0.00,VWS V14.01,2013-06-02 05:19:00,
2013-06-02 00:22:00,61.1,55.6,29.92,NE,46,0.0,2.0,82,0.00,,---,0.00,VWS V14.01,2013-06-02 05:22:00,
2013-06-02 00:25:00,60.9,55.7,29.92,NE,46,0.0,2.0,83,0.00,,---,0.00,VWS V14.01,2013-06-02 05:25:00,
2013-06-02 00:28:00,60.8,55.6,29.92,NE,46,0.0,2.0,83,0.00,,---,0.00,VWS V14.01,2013-06-02 05:28:00,
2013-06-02 00:30:00,60.7,55.5,29.92,NE,46,0.0,2.0,83,0.00,,---,0.00,VWS V14.01,2013-06-02 05:30:00,
2013-06-02 00:31:00,60.7,55.5,29.92,NE,46,0.0,0.0,83,0.00,,---,0.00,VWS V14.01,2013-06-02 05:31:00,
2013-06-02 00:34:00,60.6,55.4,29.92,NE,46,0.0,0.0,83,0.00,,---,0.00,VWS V14.01,2013-06-02 05:34:00,
2013-06-02 00:37:00,60.4,55.2,29.92,NE,46,0.0,0.0,83,0.00,,---,0.00,VWS V14.01,2013-06-02 05:37:00,
2013-06-02 00:40:00,60.1,54.9,29.92,NE,46,2.0,2.0,83,0.00,,---,0.00,VWS V14.01,2013-06-02 05:40:00,
2013-06-02 00:43:00,59.8,55.0,29.92,NE,46,0.0,2.0,84,0.00,,---,0.00,VWS V14.01,2013-06-02 05:43:00,
2013-06-02 00:46:00,59.5,54.7,29.93,NE,46,0.0,2.0,84,0.00,,---,0.00,VWS V14.01,2013-06-02 05:46:00,
2013-06-02 00:49:00,59.4,54.9,29.93,NE,46,0.0,2.0,85,0.00,,---,0.00,VWS V14.01,2013-06-02 05:49:00,
2013-06-02 00:52:00,59.3,54.8,29.93,NE,46,0.0,2.0,85,0.00,,---,0.00,VWS V14.01,2013-06-02 05:52:00,
2013-06-02 00:55:00,59.1,54.6,29.92,NE,46,0.0,2.0,85,0.00,,---,0.00,VWS V14.01,2013-06-02 05:55:00,
2013-06-02 00:58:00,59.0,54.5,29.92,NE,46,0.0,2.0,85,0.00,,---,0.00,VWS V14.01,2013-06-02 05:58:00,
2013-06-02 01:00:00,58.9,54.4,29.92,NE,46,0.0,2.0,85,0.00,,---,0.00,VWS V14.01,2013-06-02 06:00:00,
2013-06-02 01:01:00,58.8,54.3,29.92,NE,46,0.0,0.0,85,0.00,,---,0.00,VWS V14.01,2013-06-02 06:01:00,
2013-06-02 01:04:00,58.7,54.5,29.93,NE,46,0.0,0.0,86,0.00,,---,0.00,VWS V14.01,2013-06-02 06:04:00,
2013-06-02 01:07:00,58.7,54.5,29.93,NE,46,0.0,0.0,86,0.00,,---,0.00,VWS V14.01,2013-06-02 06:07:00,
2013-06-02 01:10:00,58.6,54.8,29.93,NE,46,0.0,0.0,87,0.00,,---,0.00,VWS V14.01,2013-06-02 06:10:00,
2013-06-02 01:13:00,58.6,54.8,29.93,NE,46,1.0,2.0,87,0.00,,---,0.00,VWS V14.01,2013-06-02 06:13:00,
2013-06-02 01:25:00,58.7,54.8,29.93,NE,46,0.0,2.0,87,0.00,,---,0.00,VWS V14.01,2013-06-02 06:25:00,
2013-06-02 01:28:00,58.6,54.4,29.93,NE,46,0.0,2.0,86,0.00,,---,0.00,VWS V14.01,2013-06-02 06:28:00,
2013-06-02 01:30:00,58.5,54.3,29.93,NE,46,0.0,2.0,86,0.00,,---,0.00,VWS V14.01,2013-06-02 06:30:00,
2013-06-02 01:31:00,58.5,54.3,29.93,NE,46,0.0,0.0,86,0.00,,---,0.00,VWS V14.01,2013-06-02 06:31:00,
2013-06-02 01:34:00,58.4,54.2,29.93,NE,46,0.0,0.0,86,0.00,,---,0.00,VWS V14.01,2013-06-02 06:34:00,
2013-06-02 01:37:00,58.2,54.0,29.93,NE,46,0.0,0.0,86,0.00,,---,0.00,VWS V14.01,2013-06-02 06:37:00,
2013-06-02 01:40:00,58.2,54.4,29.93,NE,46,0.0,0.0,87,0.00,,---,0.00,VWS V14.01,2013-06-02 06:40:00,
2013-06-02 01:43:00,58.2,54.4,29.93,NE,46,0.0,0.0,87,0.00,,---,0.00,VWS V14.01,2013-06-02 06:43:00,
2013-06-02 01:46:00,58.2,54.4,29.93,NE,46,0.0,0.0,87,0.00,,---,0.00,VWS V14.01,2013-06-02 06:46:00,
2013-06-02 01:49:00,58.2,54.4,29.92,NE,46,0.0,0.0,87,0.00,,---,0.00,VWS V14.01,2013-06-02 06:49:00,
2013-06-02 01:52:00,58.1,54.3,29.93,NE,46,0.0,0.0,87,0.00,,---,0.00,VWS V14.01,2013-06-02 06:52:00,
2013-06-02 02:01:00,57.8,54.0,29.93,NE,46,0.0,1.0,87,0.00,,---,0.00,VWS V14.01,2013-06-02 07:01:00,
2013-06-02 02:10:00,57.1,53.3,29.94,NE,46,0.0,2.0,87,0.00,,---,0.00,VWS V14.01,2013-06-02 07:10:00,
2013-06-02 02:13:00,56.8,53.0,29.93,NE,46,0.0,2.0,87,0.00,,---,0.00,VWS V14.01,2013-06-02 07:13:00,
2013-06-02 02:15:00,58.7,54.8,29.93,NE,46,0.0,2.0,87,0.00,,---,0.00,VWS V14.01,2013-06-02 07:15:00,
2013-06-02 02:16:00,56.7,53.2,29.93,NE,46,0.0,2.0,88,0.00,,---,0.00,VWS V14.01,2013-06-02 07:16:00,
2013-06-02 02:20:00,56.6,53.1,29.93,NE,46,0.0,2.0,88,0.00,,---,0.00,VWS V14.01,2013-06-02 07:20:00,
2013-06-02 02:21:00,58.8,55.0,29.93,NE,46,0.0,2.0,87,0.00,,---,0.00,VWS V14.01,2013-06-02 07:21:00,
2013-06-02 02:23:00,56.5,53.0,29.93,NE,46,0.0,2.0,88,0.00,,---,0.00,VWS V14.01,2013-06-02 07:23:00,
2013-06-02 02:32:00,56.2,53.0,29.94,NE,46,0.0,0.0,89,0.00,,---,0.00,VWS V14.01,2013-06-02 07:32:00,
2013-06-02 02:35:00,56.0,52.5,29.94,NE,46,0.0,0.0,88,0.00,,---,0.00,VWS V14.01,2013-06-02 07:35:00,
2013-06-02 02:44:00,55.7,52.8,29.95,NE,46,0.0,1.0,90,0.00,,---,0.00,VWS V14.01,2013-06-02 07:44:00,
2013-06-02 02:47:00,55.5,52.6,29.95,NE,46,0.0,2.0,90,0.00,,---,0.00,VWS V14.01,2013-06-02 07:47:00,
2013-06-02 02:53:00,55.2,52.3,29.96,NE,46,1.0,2.0,90,0.00,,---,0.00,VWS V14.01,2013-06-02 07:53:00,
2013-06-02 02:54:00,58.0,54.2,29.93,NE,46,0.0,0.0,87,0.00,,---,0.00,VWS V14.01,2013-06-02 07:54:00,
2013-06-02 02:56:00,55.1,52.2,29.96,NE,46,2.0,2.0,90,0.00,,---,0.00,VWS V14.01,2013-06-02 07:56:00,
2013-06-02 02:57:00,57.9,54.4,29.93,NE,46,0.0,0.0,88,0.00,,---,0.00,VWS V14.01,2013-06-02 07:57:00,
2013-06-02 02:59:00,54.9,52.0,29.96,NE,46,0.0,2.0,90,0.00,,---,0.00,VWS V14.01,2013-06-02 07:59:00,
2013-06-02 03:00:00,54.9,52.0,29.96,NE,46,0.0,2.0,90,0.00,,---,0.00,VWS V14.01,2013-06-02 08:00:00,
2013-06-02 03:03:00,57.6,53.8,29.93,NE,46,0.0,1.0,87,0.00,,---,0.00,VWS V14.01,2013-06-02 08:03:00,
2013-06-02 03:11:00,54.8,52.5,29.97,NE,46,0.0,0.0,92,0.00,,---,0.00,VWS V14.01,2013-06-02 08:11:00,
2013-06-02 03:14:00,55.1,52.8,29.97,NE,46,0.0,1.0,92,0.00,,---,0.00,VWS V14.01,2013-06-02 08:14:00,
2013-06-02 03:24:00,56.4,52.9,29.94,NE,46,1.0,2.0,88,0.00,,---,0.00,VWS V14.01,2013-06-02 08:24:00,
2013-06-02 03:26:00,55.6,53.3,29.97,NE,46,0.0,2.0,92,0.00,,---,0.00,VWS V14.01,2013-06-02 08:26:00,
2013-06-02 03:28:00,56.2,53.0,29.94,NE,46,0.0,2.0,89,0.00,,---,0.00,VWS V14.01,2013-06-02 08:28:00,
2013-06-02 03:36:00,55.8,52.6,29.94,NE,46,1.0,1.0,89,0.00,,---,0.00,VWS V14.01,2013-06-02 08:36:00,
2013-06-02 03:38:00,55.5,52.6,29.97,NE,46,0.0,1.0,90,0.00,,---,0.00,VWS V14.01,2013-06-02 08:38:00,
2013-06-02 03:48:00,55.4,52.5,29.96,NE,46,1.0,2.0,90,0.00,,---,0.00,VWS V14.01,2013-06-02 08:48:00,
2013-06-02 04:00:00,54.8,51.9,29.96,NE,46,0.0,0.0,90,0.00,,---,0.00,VWS V14.01,2013-06-02 09:00:00,
2013-06-02 04:04:00,54.8,52.2,29.97,NE,46,0.0,0.0,91,0.00,,---,0.00,VWS V14.01,2013-06-02 09:04:00,
2013-06-02 04:07:00,54.8,52.2,29.97,NE,46,0.0,0.0,91,0.00,,---,0.00,VWS V14.01,2013-06-02 09:07:00,
2013-06-02 04:16:00,55.3,53.0,29.97,NE,46,1.0,2.0,92,0.00,,---,0.00,VWS V14.01,2013-06-02 09:16:00,
2013-06-02 04:19:00,55.4,53.1,29.97,NE,46,1.0,2.0,92,0.00,,---,0.00,VWS V14.01,2013-06-02 09:19:00,
2013-06-02 04:20:00,53.8,51.2,29.97,NE,46,0.0,0.0,91,0.00,,---,0.00,VWS V14.01,2013-06-02 09:20:00,
2013-06-02 04:22:00,55.5,52.9,29.97,NE,46,0.0,2.0,91,0.00,,---,0.00,VWS V14.01,2013-06-02 09:22:00,
2013-06-02 04:28:00,55.6,53.3,29.97,NE,46,0.0,2.0,92,0.00,,---,0.00,VWS V14.01,2013-06-02 09:28:00,
2013-06-02 04:31:00,55.7,53.4,29.97,NE,46,0.0,0.0,92,0.00,,---,0.00,VWS V14.01,2013-06-02 09:31:00,
2013-06-02 04:34:00,55.6,53.0,29.97,NE,46,0.0,0.0,91,0.00,,---,0.00,VWS V14.01,2013-06-02 09:34:00,
2013-06-02 04:40:00,55.3,52.4,29.97,NE,46,0.0,1.0,90,0.00,,---,0.00,VWS V14.01,2013-06-02 09:40:00,
2013-06-02 04:43:00,55.1,52.2,29.97,NE,46,0.0,1.0,90,0.00,,---,0.00,VWS V14.01,2013-06-02 09:43:00,
2013-06-02 04:49:00,54.8,51.9,29.96,NE,46,0.0,1.0,90,0.00,,---,0.00,VWS V14.01,2013-06-02 09:49:00,
2013-06-02 04:52:00,54.6,51.7,29.97,NE,46,0.0,1.0,90,0.00,,---,0.00,VWS V14.01,2013-06-02 09:52:00,
2013-06-02 04:55:00,54.5,51.6,29.97,NE,46,0.0,1.0,90,0.00,,---,0.00,VWS V14.01,2013-06-02 09:55:00,
2013-06-02 04:58:00,54.4,51.8,29.97,NE,46,0.0,1.0,91,0.00,,---,0.00,VWS V14.01,2013-06-02 09:58:00,
2013-06-02 05:01:00,54.4,51.8,29.97,NE,46,0.0,0.0,91,0.00,,---,0.00,VWS V14.01,2013-06-02 10:01:00,
2013-06-02 05:07:00,54.3,51.7,29.97,NE,46,0.0,0.0,91,0.00,,---,0.00,VWS V14.01,2013-06-02 10:07:00,
2013-06-02 05:13:00,53.9,51.3,29.98,NE,46,0.0,0.0,91,0.00,,---,0.00,VWS V14.01,2013-06-02 10:13:00,
2013-06-02 05:16:00,53.8,51.2,29.97,NE,46,0.0,0.0,91,0.00,,---,0.00,VWS V14.01,2013-06-02 10:16:00,
2013-06-02 05:22:00,53.7,51.1,29.97,NE,46,0.0,0.0,91,0.00,,---,0.00,VWS V14.01,2013-06-02 10:22:00,
2013-06-02 05:25:00,53.8,51.5,29.97,NE,46,0.0,0.0,92,0.00,,---,0.00,VWS V14.01,2013-06-02 10:25:00,
2013-06-02 05:28:00,53.9,51.6,29.97,NE,46,0.0,0.0,92,0.00,,---,0.00,VWS V14.01,2013-06-02 10:28:00,
2013-06-02 05:34:00,53.9,51.6,29.97,NE,46,0.0,0.0,92,0.00,,---,0.00,VWS V14.01,2013-06-02 10:34:00,
2013-06-02 05:37:00,53.9,51.6,29.97,NE,46,0.0,0.0,92,0.00,,---,0.00,VWS V14.01,2013-06-02 10:37:00,
2013-06-02 05:40:00,53.9,51.9,29.96,NE,46,0.0,0.0,93,0.00,,---,0.00,VWS V14.01,2013-06-02 10:40:00,
2013-06-02 05:43:00,54.1,52.1,29.97,NE,46,0.0,0.0,93,0.00,,---,0.00,VWS V14.01,2013-06-02 10:43:00,
2013-06-02 05:46:00,54.2,52.2,29.97,NE,46,0.0,0.0,93,0.00,,---,0.00,VWS V14.01,2013-06-02 10:46:00,
2013-06-02 05:49:00,54.6,52.9,29.97,NE,46,0.0,0.0,94,0.00,,---,0.00,VWS V14.01,2013-06-02 10:49:00,
2013-06-02 05:52:00,55.3,53.6,29.96,NE,46,0.0,0.0,94,0.00,,---,0.00,VWS V14.01,2013-06-02 10:52:00,
2013-06-02 05:58:00,56.2,53.9,29.96,NE,46,0.0,0.0,92,0.00,,---,0.00,VWS V14.01,2013-06-02 10:58:00,
2013-06-02 06:04:00,56.6,54.0,29.96,NE,46,0.0,0.0,91,0.00,,---,0.00,VWS V14.01,2013-06-02 11:04:00,
2013-06-02 06:10:00,56.5,53.6,29.96,NE,46,0.0,0.0,90,0.00,,---,0.00,VWS V14.01,2013-06-02 11:10:00,
2013-06-02 06:13:00,56.4,53.5,29.96,NE,46,0.0,0.0,90,0.00,,---,0.00,VWS V14.01,2013-06-02 11:13:00,
2013-06-02 06:16:00,56.3,53.1,29.97,NE,46,0.0,0.0,89,0.00,,---,0.00,VWS V14.01,2013-06-02 11:16:00,
2013-06-02 06:19:00,56.1,52.9,29.97,NE,46,0.0,0.0,89,0.00,,---,0.00,VWS V14.01,2013-06-02 11:19:00,
2013-06-02 06:22:00,56.0,52.8,29.97,NE,46,0.0,0.0,89,0.00,,---,0.00,VWS V14.01,2013-06-02 11:22:00,
2013-06-02 06:26:00,55.9,53.0,29.97,NE,46,0.0,0.0,90,0.00,,---,0.00,VWS V14.01,2013-06-02 11:26:00,
2013-06-02 06:28:00,55.8,52.9,29.97,NE,46,0.0,0.0,90,0.00,,---,0.00,VWS V14.01,2013-06-02 11:28:00,
2013-06-02 06:32:00,55.8,52.9,29.97,NE,46,0.0,0.0,90,0.00,,---,0.00,VWS V14.01,2013-06-02 11:32:00,
2013-06-02 06:35:00,55.8,53.2,29.98,NE,46,0.0,0.0,91,0.00,,---,0.00,VWS V14.01,2013-06-02 11:35:00,
2013-06-02 06:41:00,56.1,53.5,29.98,NE,46,0.0,0.0,91,0.00,,---,0.00,VWS V14.01,2013-06-02 11:41:00,
2013-06-02 06:44:00,56.0,53.1,29.99,NE,46,0.0,0.0,90,0.00,,---,0.00,VWS V14.01,2013-06-02 11:44:00,
2013-06-02 06:47:00,55.9,53.3,29.99,NE,46,0.0,0.0,91,0.00,,---,0.00,VWS V14.01,2013-06-02 11:47:00,
2013-06-02 06:50:00,55.9,53.3,29.99,NE,46,0.0,0.0,91,0.00,,---,0.00,VWS V14.01,2013-06-02 11:50:00,
2013-06-02 06:53:00,55.9,53.3,30.00,NE,46,0.0,0.0,91,0.00,,---,0.00,VWS V14.01,2013-06-02 11:53:00,
2013-06-02 06:56:00,56.1,53.8,30.00,NE,46,0.0,0.0,92,0.00,,---,0.00,VWS V14.01,2013-06-02 11:56:00,
2013-06-02 06:58:00,56.3,54.0,30.00,NE,46,0.0,0.0,92,0.00,,---,0.00,VWS V14.01,2013-06-02 11:58:00,
2013-06-02 06:59:00,56.4,54.1,30.00,NE,46,0.0,0.0,92,0.00,,---,0.00,VWS V14.01,2013-06-02 11:59:00,
2013-06-02 07:05:00,57.4,55.1,30.00,NE,46,0.0,0.0,92,0.00,,---,0.00,VWS V14.01,2013-06-02 12:05:00,
2013-06-02 07:11:00,58.7,56.1,30.00,NE,46,0.0,0.0,91,0.00,,---,0.00,VWS V14.01,2013-06-02 12:11:00,
2013-06-02 07:14:00,59.3,56.4,30.00,NE,46,0.0,0.0,90,0.00,,---,0.00,VWS V14.01,2013-06-02 12:14:00,
2013-06-02 07:17:00,59.9,56.7,30.00,NE,46,0.0,0.0,89,0.00,,---,0.00,VWS V14.01,2013-06-02 12:17:00,
2013-06-02 07:20:00,60.5,56.9,30.01,NE,46,0.0,0.0,88,0.00,,---,0.00,VWS V14.01,2013-06-02 12:20:00,
2013-06-02 07:23:00,61.0,57.1,30.01,NE,46,0.0,0.0,87,0.00,,---,0.00,VWS V14.01,2013-06-02 12:23:00,
2013-06-02 07:26:00,61.5,57.3,30.02,NE,46,0.0,0.0,86,0.00,,---,0.00,VWS V14.01,2013-06-02 12:26:00,
2013-06-02 07:28:00,61.9,57.7,30.02,NE,46,0.0,0.0,86,0.00,,---,0.00,VWS V14.01,2013-06-02 12:28:00,
2013-06-02 07:29:00,62.1,57.5,30.02,NE,46,0.0,0.0,85,0.00,,---,0.00,VWS V14.01,2013-06-02 12:29:00,
2013-06-02 07:35:00,63.3,59.0,30.02,NE,46,0.0,0.0,86,0.00,,---,0.00,VWS V14.01,2013-06-02 12:35:00,
2013-06-02 07:38:00,64.0,58.4,30.02,NE,46,0.0,0.0,82,0.00,,---,0.00,VWS V14.01,2013-06-02 12:38:00,
2013-06-02 07:41:00,64.6,58.7,30.02,NE,46,0.0,0.0,81,0.00,,---,0.00,VWS V14.01,2013-06-02 12:41:00,
2013-06-02 07:44:00,64.9,58.9,30.02,NE,46,0.0,0.0,81,0.00,,---,0.00,VWS V14.01,2013-06-02 12:44:00,
2013-06-02 07:47:00,65.3,58.3,30.02,NE,53,0.0,0.0,78,0.00,,---,0.00,VWS V14.01,2013-06-02 12:47:00,
2013-06-02 07:50:00,65.6,58.6,30.02,NE,56,0.0,0.0,78,0.00,,---,0.00,VWS V14.01,2013-06-02 12:50:00,
2013-06-02 07:53:00,65.9,59.2,30.02,ENE,57,0.0,0.0,79,0.00,,---,0.00,VWS V14.01,2013-06-02 12:53:00,
2013-06-02 07:56:00,66.2,58.8,30.02,ENE,60,0.0,0.0,77,0.00,,---,0.00,VWS V14.01,2013-06-02 12:56:00,
2013-06-02 08:02:00,66.7,58.9,30.03,ENE,72,0.0,0.0,76,0.00,,---,0.00,VWS V14.01,2013-06-02 13:02:00,
2013-06-02 08:05:00,67.1,58.9,30.03,ENE,64,3.0,8.0,75,0.00,,---,0.00,VWS V14.01,2013-06-02 13:05:00,
2013-06-02 08:11:00,67.6,58.7,30.03,ENE,58,3.0,8.0,73,0.00,,---,0.00,VWS V14.01,2013-06-02 13:11:00,
2013-06-02 08:14:00,67.8,58.8,30.03,ENE,72,3.0,8.0,73,0.00,,---,0.00,VWS V14.01,2013-06-02 13:14:00,
2013-06-02 08:17:00,68.1,59.1,30.03,ENE,63,3.0,8.0,73,0.00,,---,0.00,VWS V14.01,2013-06-02 13:17:00,
2013-06-02 08:20:00,68.4,59.4,30.03,ENE,76,3.0,8.0,73,0.00,,---,0.00,VWS V14.01,2013-06-02 13:20:00,
2013-06-02 08:23:00,68.6,59.2,30.03,ENE,70,3.0,8.0,72,0.00,,---,0.00,VWS V14.01,2013-06-02 13:23:00,
2013-06-02 08:28:00,69.0,58.8,30.04,ENE,66,5.0,8.0,70,0.00,,---,0.00,VWS V14.01,2013-06-02 13:28:00,
2013-06-02 08:29:00,69.1,58.9,30.04,ENE,72,4.0,6.0,70,0.00,,---,0.00,VWS V14.01,2013-06-02 13:29:00,
2013-06-02 08:32:00,69.3,59.1,30.04,East,82,3.0,7.0,70,0.00,,---,0.00,VWS V14.01,2013-06-02 13:32:00,
2013-06-02 08:35:00,69.5,58.9,30.04,NE,35,3.0,7.0,69,0.00,,---,0.00,VWS V14.01,2013-06-02 13:35:00,
2013-06-02 08:38:00,69.7,58.7,30.03,ENE,58,2.0,7.0,68,0.00,,---,0.00,VWS V14.01,2013-06-02 13:38:00,
2013-06-02 08:42:00,69.9,58.9,30.03,NE,53,2.0,7.0,68,0.00,,---,0.00,VWS V14.01,2013-06-02 13:42:00,
2013-06-02 08:45:00,70.4,58.9,30.03,NE,39,4.0,8.0,67,0.00,,---,0.00,VWS V14.01,2013-06-02 13:45:00,
2013-06-02 08:48:00,70.6,58.7,30.04,ENE,58,8.0,8.0,66,0.00,,---,0.00,VWS V14.01,2013-06-02 13:48:00,
2013-06-02 08:51:00,70.7,58.4,30.04,NE,36,6.0,8.0,65,0.00,,---,0.00,VWS V14.01,2013-06-02 13:51:00,
2013-06-02 08:54:00,71.0,58.7,30.04,ENE,75,4.0,9.0,65,0.00,,---,0.00,VWS V14.01,2013-06-02 13:54:00,
2013-06-02 08:57:00,71.3,58.1,30.04,ENE,66,5.0,10.0,63,0.00,,---,0.00,VWS V14.01,2013-06-02 13:57:00,
2013-06-02 08:58:00,71.4,58.2,30.04,NE,53,8.0,10.0,63,0.00,,---,0.00,VWS V14.01,2013-06-02 13:58:00,
2013-06-02 09:03:00,71.6,57.9,30.04,ENE,74,4.0,9.0,62,0.00,,---,0.00,VWS V14.01,2013-06-02 14:03:00,
2013-06-02 09:06:00,72.0,58.7,30.04,ENE,76,2.0,9.0,63,0.00,,---,0.00,VWS V14.01,2013-06-02 14:06:00,
2013-06-02 09:09:00,72.4,57.8,30.04,East,87,6.0,9.0,60,0.00,,---,0.00,VWS V14.01,2013-06-02 14:09:00,
2013-06-02 09:12:00,72.6,58.4,30.05,ENE,65,5.0,10.0,61,0.00,,---,0.00,VWS V14.01,2013-06-02 14:12:00,
2013-06-02 09:15:00,72.8,57.7,30.05,East,80,2.0,10.0,59,0.00,,---,0.00,VWS V14.01,2013-06-02 14:15:00,
2013-06-02 09:18:00,73.1,57.9,30.05,East,87,5.0,11.0,59,0.00,,---,0.00,VWS V14.01,2013-06-02 14:18:00,
2013-06-02 09:21:00,73.3,57.2,30.05,East,84,5.0,11.0,57,0.00,,---,0.00,VWS V14.01,2013-06-02 14:21:00,
2013-06-02 09:27:00,73.5,57.3,30.05,East,88,3.0,13.0,57,0.00,,---,0.00,VWS V14.01,2013-06-02 14:27:00,
2013-06-02 09:28:00,73.6,57.0,30.05,ESE,105,8.0,13.0,56,0.00,,---,0.00,VWS V14.01,2013-06-02 14:28:00,
2013-06-02 09:30:00,73.6,56.5,30.05,ESE,111,5.0,12.0,55,0.00,,---,0.00,VWS V14.01,2013-06-02 14:30:00,
2013-06-02 09:36:00,73.6,56.5,30.05,NE,41,4.0,12.0,55,0.00,,---,0.00,VWS V14.01,2013-06-02 14:36:00,
2013-06-02 09:39:00,73.7,56.5,30.05,East,97,6.0,12.0,55,0.00,,---,0.00,VWS V14.01,2013-06-02 14:39:00,
2013-06-02 09:42:00,74.2,56.5,30.05,East,82,7.0,14.0,54,0.00,,---,0.00,VWS V14.01,2013-06-02 14:42:00,
2013-06-02 09:48:00,74.6,57.4,30.05,SE,131,6.0,14.0,55,0.00,,---,0.00,VWS V14.01,2013-06-02 14:48:00,
2013-06-02 09:51:00,74.6,56.4,30.05,ENE,61,7.0,14.0,53,0.00,,---,0.00,VWS V14.01,2013-06-02 14:51:00,
2013-06-02 09:54:00,74.6,56.9,30.05,NE,53,2.0,14.0,54,0.00,,---,0.00,VWS V14.01,2013-06-02 14:54:00,
2013-06-02 09:57:00,74.8,57.1,30.05,ESE,103,5.0,14.0,54,0.00,,---,0.00,VWS V14.01,2013-06-02 14:57:00,
2013-06-02 09:58:00,74.8,56.5,30.05,ESE,106,5.0,14.0,53,0.00,,---,0.00,VWS V14.01,2013-06-02 14:58:00,
2013-06-02 10:00:00,74.8,56.5,30.05,ESE,103,2.0,8.0,53,0.00,,---,0.00,VWS V14.01,2013-06-02 15:00:00,
2013-06-02 10:03:00,74.9,56.6,30.05,NE,54,3.0,9.0,53,0.00,,---,0.00,VWS V14.01,2013-06-02 15:03:00,
2013-06-02 10:06:00,75.1,56.8,30.05,ESE,102,7.0,9.0,53,0.00,,---,0.00,VWS V14.01,2013-06-02 15:06:00,
2013-06-02 10:09:00,75.1,56.3,30.05,ESE,121,4.0,9.0,52,0.00,,---,0.00,VWS V14.01,2013-06-02 15:09:00,
2013-06-02 10:12:00,75.2,56.9,30.05,ESE,113,9.0,10.0,53,0.00,,---,0.00,VWS V14.01,2013-06-02 15:12:00,
2013-06-02 10:15:00,75.9,57.6,30.05,NE,44,7.0,10.0,53,0.00,,---,0.00,VWS V14.01,2013-06-02 15:15:00,
2013-06-02 10:21:00,75.7,56.3,30.05,ENE,70,4.0,10.0,51,0.00,,---,0.00,VWS V14.01,2013-06-02 15:21:00,
2013-06-02 10:24:00,75.7,57.4,30.05,ESE,103,3.0,12.0,53,0.00,,---,0.00,VWS V14.01,2013-06-02 15:24:00,
2013-06-02 10:27:00,75.7,56.8,30.05,NNE,30,6.0,12.0,52,0.00,,---,0.00,VWS V14.01,2013-06-02 15:27:00,
2013-06-02 10:30:00,75.8,56.9,30.05,NE,40,2.0,8.0,52,0.00,,---,0.00,VWS V14.01,2013-06-02 15:30:00,
2013-06-02 10:36:00,76.2,58.4,30.05,East,83,6.0,8.0,54,0.00,,---,0.00,VWS V14.01,2013-06-02 15:36:00,
2013-06-02 10:42:00,76.9,58.0,30.04,ENE,70,2.0,10.0,52,0.00,,---,0.00,VWS V14.01,2013-06-02 15:42:00,
2013-06-02 10:45:00,77.2,57.1,30.04,NE,47,4.0,10.0,50,0.00,,---,0.00,VWS V14.01,2013-06-02 15:45:00,
2013-06-02 10:48:00,77.3,57.2,30.05,North,9,5.0,10.0,50,0.00,,---,0.00,VWS V14.01,2013-06-02 15:48:00,
2013-06-02 10:51:00,77.3,57.2,30.05,East,95,3.0,10.0,50,0.00,,---,0.00,VWS V14.01,2013-06-02 15:51:00,
2013-06-02 10:55:00,77.4,56.8,30.05,East,98,1.0,10.0,49,0.00,,---,0.00,VWS V14.01,2013-06-02 15:55:00,
2013-06-02 10:58:00,77.4,56.8,30.05,ESE,107,5.0,10.0,49,0.00,,---,0.00,VWS V14.01,2013-06-02 15:58:00,
2013-06-02 11:01:00,77.7,57.6,30.05,NNW,348,4.0,9.0,50,0.00,,---,0.00,VWS V14.01,2013-06-02 16:01:00,
2013-06-02 11:07:00,78.2,56.9,30.05,NE,51,7.0,10.0,48,0.00,,---,0.00,VWS V14.01,2013-06-02 16:07:00,
2013-06-02 11:10:00,78.1,58.0,30.05,ENE,64,3.0,11.0,50,0.00,,---,0.00,VWS V14.01,2013-06-02 16:10:00,
2013-06-02 11:16:00,78.4,57.7,30.05,ENE,77,4.0,11.0,49,0.00,,---,0.00,VWS V14.01,2013-06-02 16:16:00,
2013-06-02 11:19:00,78.4,58.2,30.05,NE,46,1.0,11.0,50,0.00,,---,0.00,VWS V14.01,2013-06-02 16:19:00,
2013-06-02 11:25:00,78.7,56.2,30.05,NE,51,6.0,13.0,46,0.00,,---,0.00,VWS V14.01,2013-06-02 16:25:00,
2013-06-02 11:28:00,78.5,56.0,30.05,NNW,347,4.0,13.0,46,0.00,,---,0.00,VWS V14.01,2013-06-02 16:28:00,
2013-06-02 11:31:00,78.3,57.0,30.06,NNE,23,3.0,9.0,48,0.00,,---,0.00,VWS V14.01,2013-06-02 16:31:00,
2013-06-02 11:34:00,78.6,56.7,30.05,North,349,5.0,9.0,47,0.00,,---,0.00,VWS V14.01,2013-06-02 16:34:00,
2013-06-02 11:40:00,78.7,55.6,30.05,NE,55,9.0,10.0,45,0.00,,---,0.00,VWS V14.01,2013-06-02 16:40:00,
2013-06-02 11:43:00,78.7,55.6,30.05,NE,56,5.0,13.0,45,0.00,,---,0.00,VWS V14.01,2013-06-02 16:43:00,
2013-06-02 11:46:00,78.7,56.2,30.05,North,5,3.0,13.0,46,0.00,,---,0.00,VWS V14.01,2013-06-02 16:46:00,
2013-06-02 11:52:00,78.8,56.3,30.05,NNE,17,5.0,13.0,46,0.00,,---,0.00,VWS V14.01,2013-06-02 16:52:00,
2013-06-02 11:55:00,78.7,56.2,30.05,NE,53,3.0,13.0,46,0.00,,---,0.00,VWS V14.01,2013-06-02 16:55:00,
2013-06-02 11:58:00,78.9,55.8,30.05,North,11,4.0,13.0,45,0.00,,---,0.00,VWS V14.01,2013-06-02 16:58:00,
2013-06-02 12:04:00,78.8,56.9,30.05,NNW,346,4.0,10.0,47,0.00,,---,0.00,VWS V14.01,2013-06-02 17:04:00,
2013-06-02 12:07:00,78.7,57.4,30.05,NW,326,6.0,10.0,48,0.00,,---,0.00,VWS V14.01,2013-06-02 17:07:00,
2013-06-02 12:10:00,78.8,57.5,30.05,North,360,5.0,10.0,48,0.00,,---,0.00,VWS V14.01,2013-06-02 17:10:00,
2013-06-02 12:16:00,79.2,56.7,30.05,NNW,339,4.0,10.0,46,0.00,,---,0.00,VWS V14.01,2013-06-02 17:16:00,
2013-06-02 12:19:00,79.2,56.0,30.05,North,5,4.0,10.0,45,0.00,,---,0.00,VWS V14.01,2013-06-02 17:19:00,
2013-06-02 12:22:00,79.2,58.4,30.05,NNE,20,0.0,10.0,49,0.00,,---,0.00,VWS V14.01,2013-06-02 17:22:00,
2013-06-02 12:25:00,79.4,56.2,30.04,North,351,5.0,11.0,45,0.00,,---,0.00,VWS V14.01,2013-06-02 17:25:00,
2013-06-02 12:28:00,79.5,56.9,30.04,NNW,339,1.0,11.0,46,0.00,,---,0.00,VWS V14.01,2013-06-02 17:28:00,
2013-06-02 12:34:00,79.6,57.0,30.04,NNE,22,4.0,9.0,46,0.00,,---,0.00,VWS V14.01,2013-06-02 17:34:00,
2013-06-02 12:40:00,79.6,55.8,30.03,SSW,204,0.0,9.0,44,0.00,,---,0.00,VWS V14.01,2013-06-02 17:40:00,
2013-06-02 12:43:00,79.8,57.8,30.03,North,355,4.0,9.0,47,0.00,,---,0.00,VWS V14.01,2013-06-02 17:43:00,
2013-06-02 12:46:00,80.2,58.2,30.03,ENE,74,2.0,9.0,47,0.00,,---,0.00,VWS V14.01,2013-06-02 17:46:00,
2013-06-02 12:49:00,80.6,57.3,30.03,East,81,8.0,12.0,45,0.00,,---,0.00,VWS V14.01,2013-06-02 17:49:00,
2013-06-02 12:52:00,80.8,57.5,30.03,East,88,6.0,12.0,45,0.00,,---,0.00,VWS V14.01,2013-06-02 17:52:00,
2013-06-02 12:55:00,80.9,56.3,30.02,ENE,66,5.0,12.0,43,0.00,,---,0.00,VWS V14.01,2013-06-02 17:55:00,
2013-06-02 12:58:00,80.9,57.0,30.02,NE,40,0.0,12.0,44,0.00,,---,0.00,VWS V14.01,2013-06-02 17:58:00,
2013-06-02 13:01:00,81.2,57.9,30.02,NW,319,7.0,10.0,45,0.00,,---,0.00,VWS V14.01,2013-06-02 18:01:00,
2013-06-02 13:07:00,81.3,56.0,30.01,SSE,147,0.0,10.0,42,0.00,,---,0.00,VWS V14.01,2013-06-02 18:07:00,
2013-06-02 13:11:00,81.3,56.7,30.01,NNE,25,4.0,10.0,43,0.00,,---,0.00,VWS V14.01,2013-06-02 18:11:00,
2013-06-02 13:14:00,81.3,57.3,30.01,NW,316,6.0,12.0,44,0.00,,---,0.00,VWS V14.01,2013-06-02 18:14:00,
2013-06-02 13:17:00,81.3,57.3,30.01,North,355,5.0,12.0,44,0.00,,---,0.00,VWS V14.01,2013-06-02 18:17:00,
2013-06-02 13:21:00,81.2,56.0,30.01,ENE,62,8.0,12.0,42,0.00,,---,0.00,VWS V14.01,2013-06-02 18:21:00,
2013-06-02 13:24:00,81.2,55.3,30.01,East,90,3.0,12.0,41,0.00,,---,0.00,VWS V14.01,2013-06-02 18:24:00,
2013-06-02 13:27:00,81.1,56.5,30.01,SSE,156,0.0,12.0,43,0.00,,---,0.00,VWS V14.01,2013-06-02 18:27:00,
2013-06-02 13:33:00,81.1,57.8,30.00,NE,44,7.0,9.0,45,0.00,,---,0.00,VWS V14.01,2013-06-02 18:33:00,
2013-06-02 13:36:00,81.5,56.9,30.00,ENE,76,8.0,10.0,43,0.00,,---,0.00,VWS V14.01,2013-06-02 18:36:00,
2013-06-02 13:42:00,82.6,55.9,30.00,East,79,7.0,13.0,40,0.00,,---,0.00,VWS V14.01,2013-06-02 18:42:00,
2013-06-02 13:45:00,82.5,56.5,29.99,ENE,76,7.0,13.0,41,0.00,,---,0.00,VWS V14.01,2013-06-02 18:45:00,
2013-06-02 13:48:00,82.8,56.7,29.99,ESE,107,7.0,13.0,41,0.00,,---,0.00,VWS V14.01,2013-06-02 18:48:00,
2013-06-02 13:51:00,82.8,56.0,29.99,ENE,59,5.0,13.0,40,0.00,,---,0.00,VWS V14.01,2013-06-02 18:51:00,
2013-06-02 13:58:00,82.8,55.3,29.99,NNW,347,2.0,13.0,39,0.00,,---,0.00,VWS V14.01,2013-06-02 18:58:00,
2013-06-02 14:01:00,82.7,55.2,29.98,West,261,0.0,10.0,39,0.00,,---,0.00,VWS V14.01,2013-06-02 19:01:00,
2013-06-02 14:04:00,82.8,56.0,29.98,West,269,2.0,10.0,40,0.00,,---,0.00,VWS V14.01,2013-06-02 19:04:00,
2013-06-02 14:07:00,83.0,55.5,29.98,ESE,105,5.0,10.0,39,0.00,,---,0.00,VWS V14.01,2013-06-02 19:07:00,
2013-06-02 14:10:00,83.3,55.8,29.98,East,96,2.0,11.0,39,0.00,,---,0.00,VWS V14.01,2013-06-02 19:10:00,
2013-06-02 14:13:00,83.3,55.8,29.98,ESE,114,4.0,11.0,39,0.00,,---,0.00,VWS V14.01,2013-06-02 19:13:00,
2013-06-02 14:16:00,83.4,55.9,29.98,East,82,1.0,11.0,39,0.00,,---,0.00,VWS V14.01,2013-06-02 19:16:00,
2013-06-02 14:22:00,83.3,56.5,29.98,NW,325,5.0,11.0,40,0.00,,---,0.00,VWS V14.01,2013-06-02 19:22:00,
2013-06-02 14:25:00,83.8,57.6,29.98,NNW,328,9.0,11.0,41,0.00,,---,0.00,VWS V14.01,2013-06-02 19:25:00,
2013-06-02 14:28:00,84.0,57.8,29.98,NNW,329,10.0,11.0,41,0.00,,---,0.00,VWS V14.01,2013-06-02 19:28:00,
2013-06-02 14:31:00,84.1,57.2,29.97,NNE,15,3.0,10.0,40,0.00,,---,0.00,VWS V14.01,2013-06-02 19:31:00,
2013-06-02 14:34:00,84.0,55.7,29.97,NE,41,5.0,11.0,38,0.00,,---,0.00,VWS V14.01,2013-06-02 19:34:00,
2013-06-02 14:37:00,83.9,56.3,29.97,NNE,15,3.0,11.0,39,0.00,,---,0.00,VWS V14.01,2013-06-02 19:37:00,
2013-06-02 14:43:00,83.7,56.8,29.97,NW,305,0.0,11.0,40,0.00,,---,0.00,VWS V14.01,2013-06-02 19:43:00,
2013-06-02 14:49:00,84.0,56.4,29.97,ESE,121,2.0,11.0,39,0.00,,---,0.00,VWS V14.01,2013-06-02 19:49:00,
2013-06-02 14:52:00,84.1,55.0,29.96,SSW,199,2.0,11.0,37,0.00,,---,0.00,VWS V14.01,2013-06-02 19:52:00,
2013-06-02 14:58:00,84.3,56.0,29.96,ENE,78,7.0,11.0,38,0.00,,---,0.00,VWS V14.01,2013-06-02 19:58:00,
2013-06-02 15:01:00,84.6,55.5,29.96,ENE,65,2.0,7.0,37,0.00,,---,0.00,VWS V14.01,2013-06-02 20:01:00,
2013-06-02 15:04:00,84.8,56.4,29.96,East,100,2.0,7.0,38,0.00,,---,0.00,VWS V14.01,2013-06-02 20:04:00,
2013-06-02 15:07:00,84.8,55.7,29.96,SE,130,6.0,8.0,37,0.00,,---,0.00,VWS V14.01,2013-06-02 20:07:00,
2013-06-02 15:10:00,84.7,54.8,29.95,SE,146,2.0,8.0,36,0.00,,---,0.00,VWS V14.01,2013-06-02 20:10:00,
2013-06-02 15:13:00,84.9,55.8,29.95,ENE,72,3.0,8.0,37,0.00,,---,0.00,VWS V14.01,2013-06-02 20:13:00,
2013-06-02 15:16:00,85.1,55.9,29.95,NW,317,6.0,10.0,37,0.00,,---,0.00,VWS V14.01,2013-06-02 20:16:00,
2013-06-02 15:19:00,85.4,58.4,29.95,NW,323,6.0,10.0,40,0.00,,---,0.00,VWS V14.01,2013-06-02 20:19:00,
2013-06-02 15:22:00,85.6,56.4,29.95,NNW,342,8.0,10.0,37,0.00,,---,0.00,VWS V14.01,2013-06-02 20:22:00,
2013-06-02 15:25:00,85.6,57.1,29.94,NE,37,4.0,10.0,38,0.00,,---,0.00,VWS V14.01,2013-06-02 20:25:00,
2013-06-02 15:28:00,85.8,55.8,29.94,ENE,60,11.0,12.0,36,0.00,,---,0.00,VWS V14.01,2013-06-02 20:28:00,
2013-06-02 15:31:00,85.6,54.8,29.94,East,82,2.0,11.0,35,0.00,,---,0.00,VWS V14.01,2013-06-02 20:31:00,
2013-06-02 15:34:00,85.7,55.7,29.94,NW,313,4.0,11.0,36,0.00,,---,0.00,VWS V14.01,2013-06-02 20:34:00,
2013-06-02 15:37:00,85.8,55.8,29.94,NNE,32,3.0,11.0,36,0.00,,---,0.00,VWS V14.01,2013-06-02 20:37:00,
2013-06-02 15:43:00,85.9,55.1,29.93,North,350,2.0,11.0,35,0.00,,---,0.00,VWS V14.01,2013-06-02 20:43:00,
2013-06-02 15:46:00,86.1,55.3,29.93,ENE,70,5.0,11.0,35,0.00,,---,0.00,VWS V14.01,2013-06-02 20:46:00,
2013-06-02 15:49:00,86.2,56.9,29.93,NW,325,4.0,11.0,37,0.00,,---,0.00,VWS V14.01,2013-06-02 20:49:00,
2013-06-02 15:52:00,86.4,55.5,29.93,NNW,336,6.0,11.0,35,0.00,,---,0.00,VWS V14.01,2013-06-02 20:52:00,
2013-06-02 15:55:00,86.4,55.5,29.93,NW,315,5.0,11.0,35,0.00,,---,0.00,VWS V14.01,2013-06-02 20:55:00,
2013-06-02 15:58:00,86.5,54.8,29.93,NW,325,4.0,11.0,34,0.00,,---,0.00,VWS V14.01,2013-06-02 20:58:00,
2013-06-02 16:01:00,86.3,54.7,29.93,WNW,298,4.0,6.0,34,0.00,,---,0.00,VWS V14.01,2013-06-02 21:01:00,
2013-06-02 16:04:00,86.3,57.0,29.93,North,349,2.0,7.0,37,0.00,,---,0.00,VWS V14.01,2013-06-02 21:04:00,
2013-06-02 16:08:00,86.4,55.5,29.93,East,92,2.0,7.0,35,0.00,,---,0.00,VWS V14.01,2013-06-02 21:08:00,
2013-06-02 16:11:00,86.5,53.2,29.93,NE,49,3.0,10.0,32,0.00,,---,0.00,VWS V14.01,2013-06-02 21:11:00,
2013-06-02 16:17:00,86.4,53.9,29.92,NNE,15,4.0,10.0,33,0.00,,---,0.00,VWS V14.01,2013-06-02 21:17:00,
2013-06-02 16:20:00,86.6,55.7,29.93,NNW,344,4.0,10.0,35,0.00,,---,0.00,VWS V14.01,2013-06-02 21:20:00,
2013-06-02 16:23:00,86.8,55.1,29.92,WNW,301,4.0,10.0,34,0.00,,---,0.00,VWS V14.01,2013-06-02 21:23:00,
2013-06-02 16:26:00,86.8,55.1,29.92,NNW,333,1.0,10.0,34,0.00,,---,0.00,VWS V14.01,2013-06-02 21:26:00,
2013-06-02 16:28:00,87.0,55.3,29.92,East,82,6.0,10.0,34,0.00,,---,0.00,VWS V14.01,2013-06-02 21:28:00,
2013-06-02 16:32:00,87.0,54.5,29.92,ENE,76,4.0,9.0,33,0.00,,---,0.00,VWS V14.01,2013-06-02 21:32:00,
2013-06-02 16:35:00,86.8,55.1,29.92,NE,55,6.0,9.0,34,0.00,,---,0.00,VWS V14.01,2013-06-02 21:35:00,
2013-06-02 16:38:00,86.7,54.2,29.92,East,85,0.0,9.0,33,0.00,,---,0.00,VWS V14.01,2013-06-02 21:38:00,
2013-06-02 16:41:00,86.8,55.9,29.92,NNE,14,4.0,9.0,35,0.00,,---,0.00,VWS V14.01,2013-06-02 21:41:00,
2013-06-02 16:44:00,87.1,56.2,29.92,NW,322,5.0,9.0,35,0.00,,---,0.00,VWS V14.01,2013-06-02 21:44:00,
2013-06-02 16:47:00,87.4,55.6,29.91,ENE,63,3.0,9.0,34,0.00,,---,0.00,VWS V14.01,2013-06-02 21:47:00,
2013-06-02 16:50:00,87.6,54.1,29.91,ENE,57,3.0,9.0,32,0.00,,---,0.00,VWS V14.01,2013-06-02 21:50:00,
2013-06-02 16:53:00,87.5,54.0,29.91,NE,36,4.0,9.0,32,0.00,,---,0.00,VWS V14.01,2013-06-02 21:53:00,
2013-06-02 16:56:00,87.4,54.8,29.91,ENE,65,1.0,9.0,33,0.00,,---,0.00,VWS V14.01,2013-06-02 21:56:00,
2013-06-02 16:59:00,87.5,54.9,29.91,NE,50,5.0,8.0,33,0.00,,---,0.00,VWS V14.01,2013-06-02 21:59:00,
2013-06-02 17:02:00,87.2,52.9,29.91,North,355,3.0,8.0,31,0.00,,---,0.00,VWS V14.01,2013-06-02 22:02:00,
2013-06-02 17:05:00,87.1,53.7,29.91,North,360,5.0,8.0,32,0.00,,---,0.00,VWS V14.01,2013-06-02 22:05:00,
2013-06-02 17:08:00,87.1,51.9,29.91,NNE,25,1.0,8.0,30,0.00,,---,0.00,VWS V14.01,2013-06-02 22:08:00,
2013-06-02 17:11:00,87.1,54.5,29.90,NW,324,4.0,9.0,33,0.00,,---,0.00,VWS V14.01,2013-06-02 22:11:00,
2013-06-02 17:14:00,87.2,52.0,29.90,North,355,2.0,9.0,30,0.00,,---,0.00,VWS V14.01,2013-06-02 22:14:00,
2013-06-02 17:17:00,87.2,52.9,29.90,NW,305,1.0,9.0,31,0.00,,---,0.00,VWS V14.01,2013-06-02 22:17:00,
2013-06-02 17:20:00,87.3,53.0,29.90,NW,322,3.0,11.0,31,0.00,,---,0.00,VWS V14.01,2013-06-02 22:20:00,
2013-06-02 17:23:00,87.3,52.1,29.90,NW,321,0.0,11.0,30,0.00,,---,0.00,VWS V14.01,2013-06-02 22:23:00,
2013-06-02 17:26:00,87.4,54.0,29.90,NNE,17,2.0,11.0,32,0.00,,---,0.00,VWS V14.01,2013-06-02 22:26:00,
2013-06-02 17:28:00,87.4,53.1,29.90,NNE,16,7.0,11.0,31,0.00,,---,0.00,VWS V14.01,2013-06-02 22:28:00,
2013-06-02 17:32:00,87.2,52.0,29.90,NE,41,0.0,8.0,30,0.00,,---,0.00,VWS V14.01,2013-06-02 22:32:00,
2013-06-02 17:35:00,87.3,53.9,29.89,ENE,66,2.0,8.0,32,0.00,,---,0.00,VWS V14.01,2013-06-02 22:35:00,
2013-06-02 17:41:00,87.5,54.0,29.89,NNW,328,5.0,8.0,32,0.00,,---,0.00,VWS V14.01,2013-06-02 22:41:00,
2013-06-02 17:44:00,87.6,55.0,29.89,NNW,329,5.0,10.0,33,0.00,,---,0.00,VWS V14.01,2013-06-02 22:44:00,
2013-06-02 17:47:00,87.6,52.4,29.89,NNW,327,0.0,10.0,30,0.00,,---,0.00,VWS V14.01,2013-06-02 22:47:00,
2013-06-02 17:53:00,87.7,53.3,29.88,NNE,33,5.0,10.0,31,0.00,,---,0.00,VWS V14.01,2013-06-02 22:53:00,
2013-06-02 17:58:00,87.4,51.3,29.88,North,5,4.0,10.0,29,0.00,,---,0.00,VWS V14.01,2013-06-02 22:58:00,
2013-06-02 18:02:00,87.2,51.1,29.88,NE,43,4.0,8.0,29,0.00,,---,0.00,VWS V14.01,2013-06-02 23:02:00,
2013-06-02 18:08:00,86.8,50.8,29.88,ENE,67,4.0,8.0,29,0.00,,---,0.00,VWS V14.01,2013-06-02 23:08:00,
2013-06-02 18:14:00,86.8,51.7,29.88,ENE,74,2.0,9.0,30,0.00,,---,0.00,VWS V14.01,2013-06-02 23:14:00,
2013-06-02 18:18:00,86.9,51.8,29.88,South,190,4.0,9.0,30,0.00,,---,0.00,VWS V14.01,2013-06-02 23:18:00,
2013-06-02 18:21:00,86.9,51.8,29.88,South,190,0.0,9.0,30,0.00,,---,0.00,VWS V14.01,2013-06-02 23:21:00,
2013-06-02 18:24:00,87.0,51.8,29.88,ENE,72,1.0,9.0,30,0.00,,---,0.00,VWS V14.01,2013-06-02 23:24:00,
2013-06-02 18:27:00,86.9,51.8,29.88,ENE,72,0.0,9.0,30,0.00,,---,0.00,VWS V14.01,2013-06-02 23:27:00,
2013-06-02 18:28:00,87.0,50.9,29.88,ENE,72,0.0,9.0,29,0.00,,---,0.00,VWS V14.01,2013-06-02 23:28:00,
2013-06-02 18:30:00,87.2,52.0,29.88,ENE,68,0.0,2.0,30,0.00,,---,0.00,VWS V14.01,2013-06-02 23:30:00,
2013-06-02 18:33:00,87.5,53.2,29.88,ENE,59,0.0,2.0,31,0.00,,---,0.00,VWS V14.01,2013-06-02 23:33:00,
2013-06-02 18:36:00,87.8,50.7,29.87,NE,46,4.0,7.0,28,0.00,,---,0.00,VWS V14.01,2013-06-02 23:36:00,
2013-06-02 18:39:00,87.4,50.3,29.87,NNE,24,2.0,8.0,28,0.00,,---,0.00,VWS V14.01,2013-06-02 23:39:00,
2013-06-02 18:45:00,87.0,50.0,29.87,ENE,59,2.0,8.0,28,0.00,,---,0.00,VWS V14.01,2013-06-02 23:45:00,
2013-06-02 18:48:00,86.6,50.6,29.87,ENE,66,4.0,8.0,29,0.00,,---,0.00,VWS V14.01,2013-06-02 23:48:00,
2013-06-02 18:51:00,86.5,49.6,29.87,ENE,68,2.0,8.0,28,0.00,,---,0.00,VWS V14.01,2013-06-02 23:51:00,
2013-06-02 18:54:00,86.4,49.5,29.87,East,88,3.0,8.0,28,0.00,,---,0.00,VWS V14.01,2013-06-02 23:54:00,
2013-06-02 18:57:00,86.4,50.4,29.87,East,92,1.0,8.0,29,0.00,,---,0.00,VWS V14.01,2013-06-02 23:57:00,
2013-06-02 19:03:00,86.3,50.3,29.87,NE,40,3.0,5.0,29,0.00,,---,0.00,VWS V14.01,2013-06-03 00:03:00,
2013-06-02 19:06:00,86.1,49.2,29.87,NE,53,0.0,5.0,28,0.00,,---,0.00,VWS V14.01,2013-06-03 00:06:00,
2013-06-02 19:09:00,86.1,50.2,29.87,North,360,1.0,5.0,29,0.00,,---,0.00,VWS V14.01,2013-06-03 00:09:00,
2013-06-02 19:12:00,86.2,49.3,29.87,NNE,18,3.0,6.0,28,0.00,,---,0.00,VWS V14.01,2013-06-03 00:12:00,
2013-06-02 19:18:00,86.1,50.2,29.87,NE,44,2.0,6.0,29,0.00,,---,0.00,VWS V14.01,2013-06-03 00:18:00,
2013-06-02 19:21:00,85.9,50.0,29.87,NE,54,2.0,6.0,29,0.00,,---,0.00,VWS V14.01,2013-06-03 00:21:00,
2013-06-02 19:24:00,85.9,49.0,29.87,NNE,21,2.0,6.0,28,0.00,,---,0.00,VWS V14.01,2013-06-03 00:24:00,
2013-06-02 19:27:00,85.9,50.9,29.87,NE,56,5.0,7.0,30,0.00,,---,0.00,VWS V14.01,2013-06-03 00:27:00,
2013-06-02 19:30:00,85.6,49.7,29.87,ENE,61,1.0,4.0,29,0.00,,---,0.00,VWS V14.01,2013-06-03 00:30:00,
2013-06-02 19:36:00,85.4,50.5,29.86,ENE,78,4.0,5.0,30,0.00,,---,0.00,VWS V14.01,2013-06-03 00:36:00,
2013-06-02 19:39:00,85.0,50.1,29.86,NE,51,1.0,8.0,30,0.00,,---,0.00,VWS V14.01,2013-06-03 00:39:00,
2013-06-02 19:42:00,84.7,49.9,29.86,ENE,73,5.0,8.0,30,0.00,,---,0.00,VWS V14.01,2013-06-03 00:42:00,
2013-06-02 19:45:00,84.4,49.6,29.86,ENE,74,3.0,8.0,30,0.00,,---,0.00,VWS V14.01,2013-06-03 00:45:00,
2013-06-02 19:48:00,84.2,49.4,29.86,East,84,3.0,8.0,30,0.00,,---,0.00,VWS V14.01,2013-06-03 00:48:00,
2013-06-02 19:51:00,84.1,50.2,29.86,ENE,71,2.0,8.0,31,0.00,,---,0.00,VWS V14.01,2013-06-03 00:51:00,
2013-06-02 19:57:00,83.7,49.9,29.86,ENE,67,3.0,8.0,31,0.00,,---,0.00,VWS V14.01,2013-06-03 00:57:00,
2013-06-02 20:03:00,83.1,50.2,29.86,ENE,70,2.0,5.0,32,0.00,,---,0.00,VWS V14.01,2013-06-03 01:03:00,
2013-06-02 20:06:00,82.8,50.0,29.86,ENE,71,2.0,5.0,32,0.00,,---,0.00,VWS V14.01,2013-06-03 01:06:00,
2013-06-02 20:09:00,82.5,50.5,29.87,ENE,71,1.0,5.0,33,0.00,,---,0.00,VWS V14.01,2013-06-03 01:09:00,
2013-06-02 20:12:00,82.1,51.0,29.86,ENE,71,2.0,5.0,34,0.00,,---,0.00,VWS V14.01,2013-06-03 01:12:00,
2013-06-02 20:18:00,81.2,50.2,29.87,ENE,71,1.0,5.0,34,0.00,,---,0.00,VWS V14.01,2013-06-03 01:18:00,
2013-06-02 20:21:00,80.8,50.6,29.87,ENE,71,2.0,5.0,35,0.00,,---,0.00,VWS V14.01,2013-06-03 01:21:00,
2013-06-02 20:27:00,79.9,50.6,29.86,ENE,71,0.0,5.0,36,0.00,,---,0.00,VWS V14.01,2013-06-03 01:27:00,
2013-06-02 20:30:00,79.3,50.8,29.86,ENE,71,1.0,2.0,37,0.00,,---,0.00,VWS V14.01,2013-06-03 01:30:00,
2013-06-02 20:34:00,78.7,50.3,29.86,ENE,71,1.0,2.0,37,0.00,,---,0.00,VWS V14.01,2013-06-03 01:34:00,
2013-06-02 20:40:00,77.6,50.0,29.87,ENE,71,1.0,2.0,38,0.00,,---,0.00,VWS V14.01,2013-06-03 01:40:00,
2013-06-02 20:43:00,77.1,50.3,29.86,ENE,71,0.0,2.0,39,0.00,,---,0.00,VWS V14.01,2013-06-03 01:43:00,
2013-06-02 20:46:00,76.6,50.5,29.86,ENE,71,0.0,2.0,40,0.00,,---,0.00,VWS V14.01,2013-06-03 01:46:00,
2013-06-02 20:49:00,76.2,50.1,29.86,ENE,71,0.0,2.0,40,0.00,,---,0.00,VWS V14.01,2013-06-03 01:49:00,
2013-06-02 20:52:00,75.7,50.4,29.86,ENE,71,1.0,2.0,41,0.00,,---,0.00,VWS V14.01,2013-06-03 01:52:00,
2013-06-02 20:55:00,75.3,50.0,29.86,ENE,71,2.0,3.0,41,0.00,,---,0.00,VWS V14.01,2013-06-03 01:55:00,
2013-06-02 20:58:00,75.0,49.1,29.86,East,80,3.0,5.0,40,0.00,,---,0.00,VWS V14.01,2013-06-03 01:58:00,
2013-06-02 21:01:00,75.3,49.3,29.86,East,88,3.0,6.0,40,0.00,,---,0.00,VWS V14.01,2013-06-03 02:01:00,
2013-06-02 21:04:00,75.8,49.8,29.86,East,84,5.0,7.0,40,0.00,,---,0.00,VWS V14.01,2013-06-03 02:04:00,
2013-06-02 21:10:00,76.5,49.7,29.86,East,95,3.0,8.0,39,0.00,,---,0.00,VWS V14.01,2013-06-03 02:10:00,
2013-06-02 21:13:00,76.6,49.8,29.87,East,93,3.0,8.0,39,0.00,,---,0.00,VWS V14.01,2013-06-03 02:13:00,
2013-06-02 21:16:00,76.5,50.4,29.86,ENE,76,3.0,8.0,40,0.00,,---,0.00,VWS V14.01,2013-06-03 02:16:00,
2013-06-02 21:19:00,76.5,50.4,29.86,East,86,3.0,8.0,40,0.00,,---,0.00,VWS V14.01,2013-06-03 02:19:00,
2013-06-02 21:22:00,76.4,49.6,29.86,East,86,2.0,8.0,39,0.00,,---,0.00,VWS V14.01,2013-06-03 02:22:00,
2013-06-02 21:25:00,76.4,50.3,29.86,ESE,104,2.0,8.0,40,0.00,,---,0.00,VWS V14.01,2013-06-03 02:25:00,
2013-06-02 21:28:00,76.3,49.5,29.87,ESE,104,3.0,8.0,39,0.00,,---,0.00,VWS V14.01,2013-06-03 02:28:00,
2013-06-02 21:34:00,76.1,50.0,29.87,ESE,103,3.0,5.0,40,0.00,,---,0.00,VWS V14.01,2013-06-03 02:34:00,
2013-06-02 21:37:00,76.0,50.6,29.86,East,82,2.0,7.0,41,0.00,,---,0.00,VWS V14.01,2013-06-03 02:37:00,
2013-06-02 21:43:00,75.5,50.2,29.87,ENE,77,5.0,7.0,41,0.00,,---,0.00,VWS V14.01,2013-06-03 02:43:00,
2013-06-02 21:49:00,74.8,50.2,29.87,ESE,102,5.0,8.0,42,0.00,,---,0.00,VWS V14.01,2013-06-03 02:49:00,
2013-06-02 21:52:00,74.8,50.2,29.87,ESE,104,3.0,8.0,42,0.00,,---,0.00,VWS V14.01,2013-06-03 02:52:00,
2013-06-02 21:55:00,74.7,50.1,29.87,ESE,103,5.0,8.0,42,0.00,,---,0.00,VWS V14.01,2013-06-03 02:55:00,
2013-06-02 21:58:00,74.6,50.0,29.87,East,92,7.0,9.0,42,0.00,,---,0.00,VWS V14.01,2013-06-03 02:58:00,
2013-06-02 22:03:00,70.2,50.7,29.92,ENE,65,0.0,1.0,50,0.00,,---,0.00,VWS V14.01,2013-06-03 03:03:00,
2013-06-02 22:04:00,74.5,50.6,29.88,East,99,7.0,10.0,43,0.00,,---,0.00,VWS V14.01,2013-06-03 03:04:00,
2013-06-02 22:06:00,70.1,50.6,29.92,ENE,65,0.0,1.0,50,0.00,,---,0.00,VWS V14.01,2013-06-03 03:06:00,
2013-06-02 22:07:00,74.4,51.1,29.88,East,88,5.0,10.0,44,0.00,,---,0.00,VWS V14.01,2013-06-03 03:07:00,
2013-06-02 22:09:00,69.9,50.4,29.92,ENE,65,0.0,1.0,50,0.00,,---,0.00,VWS V14.01,2013-06-03 03:09:00,
2013-06-02 22:10:00,74.3,51.0,29.88,East,88,5.0,10.0,44,0.00,,---,0.00,VWS V14.01,2013-06-03 03:10:00,
2013-06-02 22:15:00,69.4,50.0,29.92,ENE,65,0.0,1.0,50,0.00,,---,0.00,VWS V14.01,2013-06-03 03:15:00,
2013-06-02 22:16:00,73.8,51.2,29.88,East,80,3.0,10.0,45,0.00,,---,0.00,VWS V14.01,2013-06-03 03:16:00,
2013-06-02 22:18:00,69.0,50.7,29.92,ENE,65,0.0,1.0,52,0.00,,---,0.00,VWS V14.01,2013-06-03 03:18:00,
2013-06-02 22:19:00,73.5,50.9,29.88,East,84,3.0,10.0,45,0.00,,---,0.00,VWS V14.01,2013-06-03 03:19:00,
2013-06-02 22:21:00,68.5,50.7,29.92,ENE,65,0.0,1.0,53,0.00,,---,0.00,VWS V14.01,2013-06-03 03:21:00,
2013-06-02 22:22:00,73.2,51.2,29.89,East,95,2.0,10.0,46,0.00,,---,0.00,VWS V14.01,2013-06-03 03:22:00,
2013-06-02 22:24:00,68.0,50.8,29.92,ENE,65,0.0,1.0,54,0.00,,---,0.00,VWS V14.01,2013-06-03 03:24:00,
2013-06-02 22:25:00,72.9,50.9,29.89,East,88,5.0,10.0,46,0.00,,---,0.00,VWS V14.01,2013-06-03 03:25:00,
2013-06-02 22:27:00,67.5,50.3,29.92,ENE,65,0.0,1.0,54,0.00,,---,0.00,VWS V14.01,2013-06-03 03:27:00,
2013-06-02 22:28:00,72.8,51.4,29.89,East,88,2.0,10.0,47,0.00,,---,0.00,VWS V14.01,2013-06-03 03:28:00,
2013-06-02 22:30:00,67.3,50.1,29.92,ENE,65,0.0,1.0,54,0.00,,---,0.00,VWS V14.01,2013-06-03 03:30:00,
2013-06-02 22:33:00,66.9,52.6,29.92,ENE,65,1.0,1.0,60,0.00,,---,0.00,VWS V14.01,2013-06-03 03:33:00,
2013-06-02 22:34:00,72.3,51.0,29.90,East,86,3.0,6.0,47,0.00,,---,0.00,VWS V14.01,2013-06-03 03:34:00,
2013-06-02 22:36:00,66.8,50.6,29.92,ENE,65,1.0,1.0,56,0.00,,---,0.00,VWS V14.01,2013-06-03 03:36:00,
2013-06-02 22:37:00,72.0,50.7,29.90,ENE,74,3.0,6.0,47,0.00,,---,0.00,VWS V14.01,2013-06-03 03:37:00,
2013-06-02 22:39:00,66.9,50.7,29.92,ENE,65,0.0,1.0,56,0.00,,---,0.00,VWS V14.01,2013-06-03 03:39:00,
2013-06-02 22:41:00,71.7,51.0,29.90,ENE,73,3.0,6.0,48,0.00,,---,0.00,VWS V14.01,2013-06-03 03:41:00,
2013-06-02 22:42:00,66.9,50.2,29.91,ENE,65,2.0,2.0,55,0.00,,---,0.00,VWS V14.01,2013-06-03 03:42:00,
2013-06-02 22:45:00,67.2,50.0,29.92,East,98,3.0,5.0,54,0.00,,---,0.00,VWS V14.01,2013-06-03 03:45:00,
2013-06-02 22:47:00,71.2,50.5,29.91,ENE,78,2.0,6.0,48,0.00,,---,0.00,VWS V14.01,2013-06-03 03:47:00,
2013-06-02 22:48:00,67.6,49.9,29.92,East,98,1.0,5.0,53,0.00,,---,0.00,VWS V14.01,2013-06-03 03:48:00,
2013-06-02 22:50:00,71.0,50.9,29.91,ENE,65,2.0,6.0,49,0.00,,---,0.00,VWS V14.01,2013-06-03 03:50:00,
2013-06-02 22:51:00,67.7,50.0,29.92,East,98,0.0,5.0,53,0.00,,---,0.00,VWS V14.01,2013-06-03 03:51:00,
2013-06-02 22:53:00,70.7,50.6,29.91,ENE,65,1.0,6.0,49,0.00,,---,0.00,VWS V14.01,2013-06-03 03:53:00,
2013-06-02 22:58:00,70.4,50.9,29.91,ENE,65,0.0,6.0,50,0.00,,---,0.00,VWS V14.01,2013-06-03 03:58:00,
2013-06-02 22:59:00,70.3,50.8,29.91,ENE,65,1.0,1.0,50,0.00,,---,0.00,VWS V14.01,2013-06-03 03:59:00,
2013-06-02 23:00:00,67.3,50.6,29.92,East,98,0.0,5.0,55,0.00,,---,0.00,VWS V14.01,2013-06-03 04:00:00,
2013-06-02 23:01:00,67.2,50.5,29.92,East,98,0.0,0.0,55,0.00,,---,0.00,VWS V14.01,2013-06-03 04:01:00,
2013-06-02 23:04:00,66.7,50.5,29.92,East,98,0.0,0.0,56,0.00,,---,0.00,VWS V14.01,2013-06-03 04:04:00,
2013-06-02 23:07:00,66.3,50.2,29.92,East,98,0.0,0.0,56,0.00,,---,0.00,VWS V14.01,2013-06-03 04:07:00,
2013-06-02 23:10:00,65.9,50.2,29.92,East,98,0.0,0.0,57,0.00,,---,0.00,VWS V14.01,2013-06-03 04:10:00,
2013-06-02 23:13:00,65.5,50.3,29.92,East,98,0.0,0.0,58,0.00,,---,0.00,VWS V14.01,2013-06-03 04:13:00,
2013-06-02 23:16:00,65.2,50.1,29.92,East,98,0.0,0.0,58,0.00,,---,0.00,VWS V14.01,2013-06-03 04:16:00,
2013-06-02 23:19:00,64.8,49.7,29.92,East,98,0.0,0.0,58,0.00,,---,0.00,VWS V14.01,2013-06-03 04:19:00,
2013-06-02 23:22:00,64.5,50.8,29.91,East,98,0.0,0.0,61,0.00,,---,0.00,VWS V14.01,2013-06-03 04:22:00,
2013-06-02 23:25:00,64.1,50.8,29.91,East,98,0.0,1.0,62,0.00,,---,0.00,VWS V14.01,2013-06-03 04:25:00,
2013-06-02 23:28:00,63.8,50.5,29.92,East,98,0.0,1.0,62,0.00,,---,0.00,VWS V14.01,2013-06-03 04:28:00,
2013-06-02 23:30:00,63.6,50.8,29.92,East,98,0.0,1.0,63,0.00,,---,0.00,VWS V14.01,2013-06-03 04:30:00,
2013-06-02 23:31:00,63.5,51.1,29.92,East,98,0.0,1.0,64,0.00,,---,0.00,VWS V14.01,2013-06-03 04:31:00,
2013-06-02 23:34:00,63.3,51.3,29.92,East,98,0.0,1.0,65,0.00,,---,0.00,VWS V14.01,2013-06-03 04:34:00,
2013-06-02 23:37:00,63.0,51.1,29.92,East,98,0.0,1.0,65,0.00,,---,0.00,VWS V14.01,2013-06-03 04:37:00,
2013-06-02 23:40:00,62.5,50.6,29.92,East,98,0.0,1.0,65,0.00,,---,0.00,VWS V14.01,2013-06-03 04:40:00,
2013-06-02 23:43:00,62.0,50.5,29.92,East,98,0.0,1.0,66,0.00,,---,0.00,VWS V14.01,2013-06-03 04:43:00,
2013-06-02 23:46:00,61.8,50.3,29.92,East,98,1.0,1.0,66,0.00,,---,0.00,VWS V14.01,2013-06-03 04:46:00,
2013-06-02 23:49:00,62.0,50.1,29.92,East,98,1.0,2.0,65,0.00,,---,0.00,VWS V14.01,2013-06-03 04:49:00,
2013-06-02 23:52:00,62.7,50.4,29.92,East,98,1.0,2.0,64,0.00,,---,0.00,VWS V14.01,2013-06-03 04:52:00,
2013-06-02 23:55:00,63.2,50.4,29.92,East,98,0.0,2.0,63,0.00,,---,0.00,VWS V14.01,2013-06-03 04:55:00,
2013-06-02 23:58:00,63.8,51.0,29.92,East,98,0.0,2.0,63,0.00,,---,0.00,VWS V14.01,2013-06-03 04:58:00,